EW1168 Weather Reports


Display with metric or nautical units.
time (UTC)temp
F
wind
direction
speed
MPH
gust
MPH
rain 1hr
in
rain 24hr
in
rain mn
in
humidity
%
barometer
mb
20190718093926 67 229 6.0 15.0 0.00 0.00 0.00 82 1010.2
20190718092925 67 187 6.0 13.0 0.00 0.00 0.00 84 1010.2
20190718091925 66 213 5.0 13.0 0.00 0.00 0.00 85 1010.3
20190718090926 66 202 6.0 13.0 0.00 0.00 0.00 83 1010.3
20190718085923 66 217 6.0 12.0 0.00 0.00 0.00 82 1010.3
20190718084922 66 212 6.0 15.0 0.00 0.00 0.00 83 1010.2
20190718083923 66 211 5.0 12.0 0.00 0.00 0.00 82 1010.2
20190718082922 66 175 6.0 13.0 0.00 0.00 0.00 83 1010.1
20190718081923 65 231 6.0 13.0 0.00 0.00 0.00 84 1010.1
20190718080923 65 244 6.0 14.0 0.00 0.00 0.00 85 1010.0
20190718075923 65 260 7.0 16.0 0.00 0.00 0.00 85 1010.1
20190718074923 64 176 6.0 13.0 0.00 0.00 0.00 85 1010.0
20190718073923 64 228 6.0 12.0 0.00 0.00 0.00 86 1010.0
20190718072920 63 207 5.0 12.0 0.00 0.00 0.00 87 1009.9
20190718071921 63 200 6.0 12.0 0.00 0.00 0.00 87 1009.8
20190718070921 64 173 5.0 12.0 0.00 0.00 0.00 87 1009.8
20190718065922 64 215 5.0 12.0 0.00 0.00 0.00 87 1009.9
20190718064920 64 206 6.0 13.0 0.00 0.00 0.00 87 1009.9
20190718063921 64 180 5.0 13.0 0.00 0.00 0.00 88 1010.0
20190718062921 64 190 6.0 11.0 0.00 0.00 0.00 89 1009.9
20190718061921 63 213 5.0 10.0 0.00 0.00 0.00 89 1009.8
20190718060921 63 260 5.0 11.0 0.00 0.00 0.00 90 1009.8
20190718055920 63 197 5.0 9.0 0.00 0.00 0.00 89 1009.8
20190718054920 62 209 5.0 12.0 0.00 0.00 0.00 89 1009.9
20190718053919 62 236 5.0 10.0 0.00 0.00 0.00 89 1010.0
20190718052919 62 246 4.0 11.0 0.00 0.00 0.00 89 1010.0
20190718051918 62 216 5.0 12.0 0.00 0.00 0.00 88 1009.8
20190718050918 62 197 6.0 12.0 0.00 0.00 0.00 88 1009.9
20190718045918 62 193 4.0 8.0 0.00 0.00 0.00 89 1009.9
20190718044917 62 187 3.0 6.0 0.00 0.00 0.00 89 1009.8
20190718043917 62 186 4.0 6.0 0.00 0.00 0.00 88 1009.8
20190718042917 62 195 3.0 6.0 0.00 0.00 0.00 87 1009.9
20190718041916 63 177 3.0 8.0 0.00 0.00 0.00 87 1009.8
20190718040914 63 198 3.0 7.0 0.00 0.00 0.00 86 1009.8
20190718035914 63 205 4.0 8.0 0.00 0.00 0.00 86 1009.9
20190718034914 63 218 4.0 8.0 0.00 0.00 0.00 86 1010.0
20190718033914 63 265 4.0 12.0 0.00 0.00 0.00 87 1010.2
20190718032914 63 182 4.0 9.0 0.00 0.00 0.00 87 1010.2
20190718031915 63 146 4.0 10.0 0.00 0.00 0.00 86 1010.1
20190718030914 63 217 3.0 7.0 0.00 0.00 0.00 86 1010.1
20190718025916 63 207 3.0 8.0 0.00 0.00 0.00 87 1010.1
20190718024914 64 259 3.0 8.0 0.00 0.00 0.00 88 1010.1
20190718023912 63 226 3.0 7.0 0.00 0.00 0.00 88 1010.2
20190718022912 63 216 3.0 6.0 0.00 0.00 0.00 88 1010.1
20190718021912 64 211 3.0 7.0 0.00 0.00 0.00 88 1010.2
20190718020912 64 223 3.0 6.0 0.00 0.00 0.00 88 1010.2
20190718015912 64 200 3.0 5.0 0.00 0.00 0.00 88 1010.2
20190718014912 64 200 1.0 4.0 0.00 0.00 0.00 87 1010.4
20190718013912 64 200 1.0 3.0 0.00 0.00 0.00 85 1010.4
20190718012910 64 198 1.0 4.0 0.00 0.00 0.00 85 1010.5
20190718011912 64 241 2.0 4.0 0.00 0.00 0.00 84 1010.4
20190718010910 64 242 2.0 4.0 0.00 0.00 0.00 84 1010.6
20190718005913 64 205 2.0 4.0 0.00 0.00 0.00 85 1010.7
20190718004910 64 209 2.0 6.0 0.00 0.00 0.00 85 1010.7
20190718003909 65 207 2.0 5.0 0.00 0.00 0.00 86 1010.8
20190718002908 65 234 2.0 5.0 0.00 0.00 0.00 86 1010.9
20190718001907 64 199 2.0 4.0 0.00 0.00 0.00 84 1011.0
20190718000909 64 173 1.0 3.0 0.00 0.00 0.00 84 1010.9
20190717235909 64 169 2.0 5.0 0.00 0.00 0.00 85 1010.9
20190717234908 64 173 2.0 4.0 0.00 0.00 0.00 84 1011.0
20190717233908 64 193 2.0 5.0 0.00 0.00 0.00 84 1011.0
20190717232912 64 163 1.0 2.0 0.00 0.00 0.00 83 1010.9
20190717231907 64 163 1.0 3.0 0.00 0.00 0.00 83 1010.9
20190717230909 64 111 1.0 2.0 0.00 0.00 0.00 83 1010.9
20190717225908 65 111 1.0 3.0 0.00 0.00 0.00 83 1011.0
20190717224910 65 96 1.0 2.0 0.00 0.00 0.00 83 1011.0
20190717223908 65 96 0.0 2.0 0.00 0.00 0.00 84 1011.1
20190717222909 65 96 0.0 1.0 0.00 0.00 0.00 85 1011.1
20190717221909 65 96 0.0 2.0 0.00 0.00 0.00 84 1011.1
20190717220907 65 96 0.0 2.0 0.00 0.00 0.00 84 1011.2
20190717215905 65 90 0.0 2.0 0.00 0.00 0.00 84 1011.2
20190717214903 66 86 0.0 1.0 0.00 0.00 0.00 84 1011.2
20190717213903 66 86 0.0 1.0 0.00 0.00 0.00 83 1011.2
20190717212900 66 86 0.0 2.0 0.00 0.00 0.00 83 1011.2
20190717211859 66 70 1.0 2.0 0.00 0.00 0.00 83 1011.3
20190717210857 66 65 1.0 3.0 0.00 0.00 0.00 83 1011.3
20190717205855 67 66 1.0 5.0 0.00 0.00 0.00 83 1011.4
20190717204855 67 55 1.0 5.0 0.00 0.00 0.00 83 1011.5
20190717203855 67 86 1.0 4.0 0.00 0.00 0.00 82 1011.5
20190717202855 67 86 1.0 5.0 0.00 0.00 0.00 81 1011.6
20190717201855 68 71 1.0 5.0 0.00 0.00 0.00 80 1011.8
20190717200856 68 73 1.0 5.0 0.00 0.00 0.00 79 1011.8
20190717195853 68 72 1.0 4.0 0.00 0.00 0.00 78 1011.7
20190717194853 69 86 1.0 3.0 0.00 0.00 0.00 78 1011.7
20190717193853 69 61 1.0 5.0 0.00 0.00 0.00 77 1011.8
20190717192851 69 78 1.0 3.0 0.00 0.00 0.00 77 1011.8
20190717191850 69 65 1.0 3.0 0.00 0.00 0.00 77 1012.0
20190717190849 69 65 2.0 3.0 0.00 0.00 0.00 76 1012.0
20190717185847 70 64 2.0 4.0 0.00 0.00 0.00 76 1012.0
20190717184846 70 84 2.0 5.0 0.00 0.00 0.00 75 1012.0
20190717183846 70 55 2.0 5.0 0.00 0.00 0.00 74 1012.0
20190717182846 70 63 2.0 6.0 0.00 0.00 0.00 73 1012.1
20190717181847 71 70 2.0 6.0 0.00 0.00 0.00 73 1012.1
20190717180845 71 70 2.0 5.0 0.00 0.00 0.00 72 1012.2
20190717175844 71 59 2.0 5.0 0.00 0.00 0.00 70 1012.2
20190717174850 71 30 1.0 4.0 0.00 0.00 0.00 71 1012.3
20190717173842 71 5 2.0 4.0 0.00 0.00 0.00 71 1012.3
20190717172842 71 355 2.0 5.0 0.00 0.00 0.00 71 1012.4
20190717171842 71 0 2.0 5.0 0.00 0.00 0.00 70 1012.4
20190717170843 72 17 1.0 4.0 0.00 0.00 0.00 69 1012.6
20190717165842 72 22 2.0 4.0 0.00 0.00 0.00 69 1012.6
20190717164843 71 39 3.0 6.0 0.00 0.00 0.00 68 1012.7
20190717163840 72 19 3.0 7.0 0.00 0.00 0.00 68 1012.7
20190717162841 71 31 3.0 6.0 0.00 0.00 0.00 70 1012.8
20190717161841 71 13 3.0 7.0 0.00 0.00 0.00 70 1012.8
20190717160838 71 15 3.0 5.0 0.00 0.00 0.00 71 1012.9
20190717155849 71 5 3.0 6.0 0.00 0.00 0.00 73 1013.0
20190717154838 70 5 3.0 6.0 0.00 0.00 0.00 73 1013.1
20190717153836 70 32 3.0 7.0 0.00 0.00 0.00 72 1013.2
20190717152836 71 30 3.0 6.0 0.00 0.00 0.00 68 1013.3
20190717151836 72 346 3.0 6.0 0.00 0.00 0.00 65 1013.5
20190717150836 72 338 3.0 7.0 0.00 0.00 0.00 63 1013.6
20190717145835 71 49 4.0 7.0 0.00 0.00 0.00 63 1013.7
20190717144835 71 329 4.0 6.0 0.00 0.00 0.00 66 1013.8
20190717143836 71 350 3.0 6.0 0.00 0.00 0.00 64 1013.9
20190717142834 71 337 3.0 6.0 0.00 0.00 0.00 64 1014.0
20190717141832 71 320 4.0 6.0 0.00 0.00 0.00 67 1014.1
20190717140832 71 355 4.0 7.0 0.00 0.00 0.00 66 1014.2
20190717135832 71 345 3.0 6.0 0.00 0.00 0.00 67 1014.3
20190717134832 70 342 4.0 6.0 0.00 0.00 0.00 68 1014.3
20190717133831 70 318 4.0 6.0 0.00 0.00 0.00 67 1014.4
20190717132832 69 0 4.0 7.0 0.00 0.00 0.00 71 1014.5
20190717131832 69 334 5.0 7.0 0.00 0.00 0.00 72 1014.5
20190717130830 68 329 5.0 8.0 0.00 0.00 0.00 74 1014.5
20190717125829 68 331 5.0 8.0 0.00 0.00 0.00 74 1014.6
20190717124827 69 323 4.0 8.0 0.00 0.00 0.00 75 1014.6
20190717123828 68 307 5.0 7.0 0.00 0.00 0.00 76 1014.6
20190717122827 69 338 4.0 7.0 0.00 0.00 0.00 73 1014.6
20190717121827 69 355 4.0 7.0 0.00 0.00 0.00 73 1014.7
20190717120825 69 257 3.0 6.0 0.00 0.00 0.00 74 1014.8
20190717115826 69 324 4.0 8.0 0.00 0.00 0.00 75 1014.9
20190717114823 69 351 3.0 7.0 0.00 0.00 0.00 75 1015.0
20190717113826 69 338 3.0 7.0 0.00 0.00 0.00 75 1015.2
20190717112823 68 267 3.0 5.0 0.00 0.00 0.00 76 1015.2
20190717111823 68 304 3.0 7.0 0.00 0.00 0.00 77 1015.3
20190717110822 68 329 3.0 7.0 0.00 0.00 0.00 76 1015.3
20190717105822 68 5 3.0 8.0 0.00 0.00 0.00 77 1015.4
20190717104821 68 338 3.0 5.0 0.00 0.00 0.00 78 1015.3
20190717103822 68 296 3.0 6.0 0.00 0.00 0.00 77 1015.4
20190717102822 68 319 3.0 6.0 0.00 0.00 0.00 78 1015.4
20190717100822 68 345 3.0 7.0 0.00 0.00 0.00 77 1015.4
20190717095822 68 277 3.0 7.0 0.00 0.00 0.00 78 1015.5
20190717094821 67 339 3.0 7.0 0.00 0.00 0.00 78 1015.4